DateTimeUTC,F1_A11,F1_S11,BsB_S11,BsG_S11,BsR_S11,BbsB_S11,BbsG_S11,BbsR_S11,BaB_A11,BaG_A11,BaR_A11,Tu_S11,T_S11,Uu_S11,U_S11,P_S11,T1_A11
2021-03-18T19:00:00Z,00040200,20000000,,,,,,,-000.37,-000.09,-000.28,18.6,25.6,02.3,01.5,0648.0,31.0
2021-03-18T19:01:00Z,00040200,20000000,,,,,,,-000.19,-000.33,-000.42,18.5,25.6,02.3,01.5,0648.0,31.0
2021-03-18T19:02:00Z,00040200,20000000,,,,,,,-000.09,0000.17,0000.61,18.5,25.6,02.3,01.5,0648.1,31.0
2021-03-18T19:03:00Z,00040200,60000000,,,,,,,0000.71,0000.66,0000.13,18.5,25.6,02.3,01.5,0648.1,31.0
2021-03-18T19:04:00Z,00040200,40000000,-000.10,-000.09,0000.18,0000.40,0000.04,0000.21,-001.25,-001.50,-000.84,18.6,25.4,02.4,01.6,0649.1,31.0
2021-03-18T19:05:00Z,00040200,00000000,-000.38,0000.08,-000.11,0000.06,0000.03,0000.09,-000.07,-000.04,-000.30,18.6,25.4,02.3,01.5,0649.1,31.0
2021-03-18T19:06:00Z,00040200,00000000,0000.25,-000.04,0000.14,-000.09,0000.01,0000.25,0000.12,0000.42,0000.38,18.6,25.3,02.2,01.5,0649.1,31.0
2021-03-18T19:07:00Z,00040200,01000000,-000.08,0000.05,-000.26,-000.25,-000.03,0000.23,-000.11,-000.39,-000.46,18.6,25.3,02.2,01.4,0649.1,31.0
2021-03-18T19:08:00Z,00040200,00000000,0000.19,0000.04,-000.00,0000.35,-000.18,0000.03,0000.09,0000.15,0000.41,18.6,25.3,02.2,01.5,0649.1,31.0
2021-03-18T19:09:00Z,00040200,01000000,-000.41,0000.02,0000.20,-000.32,0000.21,0000.18,0000.30,0000.39,0000.19,18.6,25.3,02.2,01.5,0649.1,31.0
2021-03-18T19:10:00Z,00040200,00000000,0000.28,0000.24,-000.03,0000.01,0000.16,0000.31,0000.01,0000.17,-000.08,18.6,25.3,02.2,01.4,0649.1,31.0
2021-03-18T19:11:00Z,00040200,00000000,0000.69,0000.02,0000.37,-000.31,-000.14,0000.11,-000.20,-000.24,0000.07,18.6,25.3,02.1,01.4,0649.0,31.0
2021-03-18T19:12:00Z,00040200,00000000,-000.02,0000.03,-000.02,-000.03,-000.11,0000.20,-000.06,-000.20,0000.02,18.6,25.3,02.3,01.5,0649.1,31.0
2021-03-18T19:13:00Z,00040200,00000000,0000.24,-000.07,0000.03,0000.42,-000.12,-000.00,-000.39,-000.12,-000.56,18.6,25.3,02.1,01.4,0649.0,31.0
2021-03-18T19:14:00Z,00040200,00000000,-000.11,0000.15,0000.02,0000.24,0000.15,-000.03,0000.28,0000.39,0000.39,18.6,25.3,02.2,01.5,0649.0,31.0
2021-03-18T19:15:00Z,00040200,00000000,-000.28,-000.05,0000.01,0000.09,-000.06,0000.17,-000.25,-000.17,-000.07,18.6,25.3,02.2,01.5,0649.1,31.0
2021-03-18T19:16:00Z,00040200,00000000,-000.24,-000.10,0000.25,0000.18,-000.13,0000.09,0000.23,-000.24,0000.23,18.6,25.3,02.1,01.4,0649.0,31.0
2021-03-18T19:17:00Z,00040200,00000000,-000.15,0000.29,0000.06,0000.20,-000.05,0000.08,-000.32,0000.06,-000.25,18.5,25.2,02.1,01.4,0649.1,31.0
2021-03-18T19:18:00Z,00040200,00000000,0000.09,0000.15,0000.20,0000.18,-000.17,0000.04,0000.09,0000.07,0000.24,18.5,25.2,02.2,01.5,0649.1,31.0
2021-03-18T19:19:00Z,00040200,00000000,0000.45,-000.08,-000.19,0000.31,-000.21,0000.01,-000.21,-000.05,-000.40,18.5,25.2,02.2,01.4,0649.2,31.0
2021-03-18T19:20:00Z,00040200,01000000,0000.26,0000.13,0000.35,0000.09,-000.13,0000.02,0000.28,-000.34,-000.21,18.5,25.2,02.2,01.4,0649.1,31.0
2021-03-18T19:21:00Z,00040200,00000000,0000.16,-000.11,-000.21,-000.08,0000.06,0000.04,-000.32,-000.03,-000.01,18.5,25.2,02.2,01.4,0649.1,31.0
2021-03-18T19:22:00Z,00040200,00000000,0000.81,-000.03,-000.25,-000.09,0000.01,0000.05,0000.29,-000.16,-000.14,18.5,25.2,02.1,01.4,0649.1,31.0
2021-03-18T19:23:00Z,00040200,00000000,0000.35,0000.24,0000.01,-000.24,-000.29,0000.01,-000.35,-000.03,-000.01,18.5,25.2,02.1,01.4,0649.1,31.0
2021-03-18T19:24:00Z,00040200,00000000,-000.02,-000.02,0000.05,0000.13,-000.06,-000.04,-000.15,-000.33,0000.42,18.5,25.2,02.2,01.4,0649.1,31.0
2021-03-18T19:25:00Z,00040200,00000000,0000.09,-000.08,0000.10,0000.14,0000.03,0000.16,0000.45,0000.41,-000.54,18.5,25.2,02.0,01.3,0649.2,31.0
2021-03-18T19:26:00Z,00040200,00000000,0000.33,-000.19,-000.16,-000.17,-000.00,-000.23,-000.21,0000.06,0000.23,18.5,25.2,02.0,01.3,0649.1,31.0
2021-03-18T19:27:00Z,00040200,00000000,0000.03,-000.03,-000.14,0000.74,0000.01,0000.03,-000.44,-000.16,-000.09,18.5,25.2,02.1,01.4,0649.1,31.0
2021-03-18T19:28:00Z,00040200,00000000,0000.31,-000.11,-000.06,0000.45,0000.03,0000.18,0000.09,-000.43,-000.19,18.5,25.2,01.9,01.3,0649.1,31.0
2021-03-18T19:29:00Z,00040200,01000000,0000.20,0000.02,0000.09,0000.18,0000.05,-000.13,-000.36,0000.14,0000.10,18.5,25.2,02.0,01.3,0649.1,31.0
2021-03-18T19:30:00Z,00040200,00000000,-000.38,-000.02,0000.23,0000.25,-000.02,0000.12,0000.11,-000.11,0000.13,18.5,25.2,02.0,01.3,0649.1,31.0
2021-03-18T19:31:00Z,00040200,00000000,-000.23,-000.00,-000.02,0000.33,-000.20,0000.18,0000.08,-000.35,-000.15,18.5,25.1,01.9,01.3,0649.2,31.0
2021-03-18T19:32:00Z,00040200,00000000,-000.22,0000.01,-000.04,-000.62,-000.09,-000.06,-000.35,0000.30,-000.50,18.5,25.1,01.9,01.3,0649.2,31.0
2021-03-18T19:33:00Z,00040200,00000000,0000.15,-000.03,-000.09,-000.01,-000.13,0000.06,0000.32,0000.11,0000.65,18.4,25.1,01.8,01.2,0649.2,31.0
2021-03-18T19:34:00Z,00040200,01000000,-000.11,-000.00,-000.06,0000.49,-000.13,0000.17,-000.56,-000.44,-000.26,18.4,25.1,01.9,01.3,0649.2,31.0
2021-03-18T19:35:00Z,00040200,01000000,0000.28,0000.23,0000.14,0000.57,-000.09,0000.17,0000.49,0000.55,0000.02,18.4,25.1,01.8,01.2,0649.2,31.0
2021-03-18T19:36:00Z,00040200,01000000,0000.10,-000.06,0000.07,0000.22,-000.25,0000.06,0000.03,-000.18,0000.04,18.4,25.1,01.9,01.3,0649.2,31.0
2021-03-18T19:37:00Z,00040200,01000000,0000.05,-000.08,0000.07,-000.43,-000.13,0000.16,-000.41,-000.26,-000.27,18.4,25.1,01.9,01.2,0649.3,31.0
2021-03-18T19:38:00Z,00040200,01000000,0000.05,-000.25,0000.35,0000.02,-000.05,0000.39,-000.02,-000.14,-000.04,18.4,25.1,01.8,01.2,0649.2,31.0
2021-03-18T19:39:00Z,00040200,01000000,-000.09,0000.11,0000.24,0000.10,0000.10,-000.15,0000.35,0000.16,0000.55,18.4,25.1,01.8,01.2,0649.3,31.0
2021-03-18T19:40:00Z,00040200,01000000,-000.53,0000.19,-000.07,-000.26,-000.04,0000.01,-000.26,-000.31,-000.71,18.4,25.1,01.8,01.2,0649.4,31.0
2021-03-18T19:41:00Z,00040200,01000000,-000.34,-000.16,-000.09,-000.07,-000.16,-000.01,-000.38,-000.17,0000.06,18.4,25.1,01.8,01.2,0649.3,31.0
2021-03-18T19:42:00Z,00040200,01000000,0000.76,-000.05,-000.02,0000.19,-000.08,-000.05,0000.33,0000.17,-000.09,18.4,25.1,01.8,01.2,0649.4,31.0
2021-03-18T19:43:00Z,00040200,01000000,-000.01,0000.15,0000.09,-000.10,0000.05,0000.06,-000.22,-000.08,-000.07,18.4,25.1,01.7,01.1,0649.4,31.0
2021-03-18T19:44:00Z,00040200,01000000,0000.32,0000.08,0000.16,0000.10,0000.08,0000.17,0000.07,0000.06,0000.31,18.4,25.1,01.8,01.2,0649.4,31.0
2021-03-18T19:45:00Z,00040200,01000000,0000.00,-000.23,0000.26,-000.02,0000.01,0000.12,-000.10,0000.08,-000.32,18.4,25.1,01.8,01.2,0649.4,31.0
2021-03-18T19:46:00Z,00040200,01000000,-000.19,-000.07,-000.25,0000.20,-000.26,0000.09,0000.02,-000.17,0000.30,18.4,25.1,01.8,01.2,0649.3,31.0
2021-03-18T19:47:00Z,00040200,01000000,0000.34,0000.00,-000.05,0000.61,-000.04,0000.26,0000.02,0000.44,-000.02,18.4,25.0,01.8,01.2,0649.3,31.0
2021-03-18T19:48:00Z,00040200,01000000,0000.38,-000.31,-000.09,0000.10,-000.11,0000.15,0000.20,-000.19,0000.11,18.4,25.1,01.9,01.3,0649.3,31.0
2021-03-18T19:49:00Z,00040200,01000000,0000.27,-000.20,-000.16,-000.15,0000.11,0000.06,0000.15,-000.05,0000.03,18.3,25.0,01.8,01.2,0649.3,31.0
2021-03-18T19:50:00Z,00040200,01000000,-000.10,-000.21,0000.15,0000.13,0000.01,0000.19,-000.15,-000.13,-000.20,18.3,25.0,01.9,01.3,0649.3,31.0
2021-03-18T19:51:00Z,00040200,01000000,-000.24,-000.08,0000.04,0000.60,-000.01,-000.05,-000.16,0000.03,0000.07,18.3,25.0,01.8,01.2,0649.3,31.0
2021-03-18T19:52:00Z,00040200,01000000,0000.10,0000.11,0000.12,0000.04,-000.01,0000.24,-000.26,-000.44,-000.35,18.3,25.0,01.7,01.2,0649.3,31.0
2021-03-18T19:53:00Z,00040200,01000000,-000.16,-000.01,-000.02,0000.31,-000.16,0000.43,-000.30,0000.41,0000.41,18.3,25.0,01.7,01.1,0649.3,31.0
2021-03-18T19:54:00Z,00040200,01000000,0000.24,0000.02,0000.10,0000.48,0000.06,-000.29,0000.01,-000.40,-000.56,18.3,25.0,01.7,01.1,0649.4,31.0
2021-03-18T19:55:00Z,00040200,01000000,0000.27,0000.01,-000.13,0000.49,-000.11,-000.20,-000.08,-000.01,0000.12,18.3,25.0,01.7,01.2,0649.4,31.0
2021-03-18T19:56:00Z,00040200,01000000,0000.34,0000.25,-000.07,-000.41,-000.10,0000.02,-000.05,0000.28,-000.11,18.3,25.0,01.7,01.1,0649.3,31.0
2021-03-18T19:57:00Z,00040200,40000000,,,,,,,0001.09,0000.66,0000.61,18.4,25.1,02.0,01.3,0649.3,31.0
2021-03-18T19:58:00Z,00040200,60000000,,,,,,,-000.39,-000.56,-000.14,18.1,25.1,01.7,01.1,0648.5,31.0
2021-03-18T19:59:00Z,00040200,20000000,,,,,,,-000.42,-000.37,-000.62,18.1,25.2,01.6,01.1,0648.4,31.0
